Beauvechain, Belgium

3:23 AM CET on January 20, 2017 (GMT +0100)
Beauvechain Air Base

Weather History for EBBE - October, 2012

Change the Weather History Date:

Friday, October 12, 2012

  Actual Average Record
Temperature  
Mean Temperature 52 °F -  
Max Temperature 57 °F 49 °F 69 °F (2008)
Min Temperature 46 °F 43 °F 35 °F (2015)
Degree Days  
Heating Degree Days 14    
Growing Degree Days 2 (Base 50)    
Moisture  
Dew Point 50 °F    
Average Humidity 86    
Maximum Humidity 100    
Minimum Humidity 52    
Precipitation  
Precipitation 0.00 in - - ()
Sea Level Pressure  
Sea Level Pressure 29.70 in    
Wind  
Wind Speed 10 mph ()    
Max Wind Speed 22 mph    
Max Gust Speed -    
Visibility 6.1 miles    
Events Rain    
Averages and records for this station are not official NWS values.
T = Trace of Precipitation, MM = Missing Value Source: Averaged Metar Reports

Daily Weather History Graph

Daily Weather History Graph

Search for Another Location

Airport or City:

Trip Planner

Search our weather history database for the weather conditions in past years. The results will help you decide how hot, cold, wet, or windy it might be!

Date:

Astronomy

Oct. 12, 2012 Rise Set
Actual Time 7:59 AM CEST 6:54 PM CEST
Civil Twilight 7:26 AM CEST 7:27 PM CEST
Nautical Twilight 6:48 AM CEST 8:05 PM CEST
Astronomical Twilight 6:10 AM CEST 8:43 PM CEST
Moon 4:05 AM CEST (10/12) 5:10 PM CEST (10/12)
Length of Visible Light 12h 00m
Length of Day
10h 54m
Waning Crescent, 12% of the Moon is Illuminated
Oct 12
Waning Crescent
Oct 15
New
Oct 22
First Quarter
Oct 29
Full
Nov 7
Last Quarter

Hourly Weather History & Observations

Time (CEST) Temp. Windchill Dew Point Humidity Pressure Visibility Wind Dir Wind Speed Gust Speed Precip Events Conditions
12:25 AM 55.4 °F - 53.6 °F 94% 29.65 in 5.0 mi SSE 8.1 mph - N/A   Mostly Cloudy
1:25 AM 55.4 °F - 53.6 °F 94% 29.65 in 5.6 mi SSE 9.2 mph - N/A   Mostly Cloudy
1:54 AM 55.4 °F - 53.6 °F 94% 29.65 in 4.3 mi SSE 9.2 mph - N/A   Drizzle
2:00 AM 56 °F - 54 °F 90% 29.65 in 6 mi SSE 8.9 mph - - Rain Drizzle
2:12 AM 55.4 °F - 55.4 °F 100% 29.65 in - SSE 9.2 mph - N/A Rain Rain
2:19 AM 55.4 °F - 55.4 °F 100% 29.65 in - SSE 10.4 mph - N/A Rain Rain
2:25 AM 55.4 °F - 55.4 °F 100% 29.62 in - SSE 10.4 mph - N/A Rain Rain
2:32 AM 55.4 °F - 55.4 °F 100% 29.62 in - SSE 11.5 mph - N/A Rain Rain
2:55 AM 55.4 °F - 55.4 °F 100% 29.62 in 3.1 mi SSE 11.5 mph - N/A Rain Light Rain
3:25 AM 55.4 °F - 55.4 °F 100% 29.62 in 3.1 mi SSE 11.5 mph - N/A Rain Light Rain
3:37 AM 55.4 °F - 55.4 °F 100% 29.62 in 5.0 mi SSE 10.4 mph - N/A   Drizzle
4:10 AM 55.4 °F - 55.4 °F 100% 29.62 in 4.3 mi South 11.5 mph - N/A Rain Light Rain Showers
4:25 AM 55.4 °F - 55.4 °F 100% 29.62 in 3.7 mi SSE 10.4 mph - N/A Rain Light Rain Showers
4:28 AM 55.4 °F - 55.4 °F 100% 29.62 in 5.0 mi SSE 10.4 mph - N/A Rain Light Rain Showers
4:34 AM 55.4 °F - 55.4 °F 100% 29.62 in 5.6 mi SSE 11.5 mph - N/A   Mostly Cloudy
4:56 AM 55.4 °F - 55.4 °F 100% 29.59 in - South 10.4 mph - N/A Rain Rain Showers
5:06 AM 55.4 °F - 55.4 °F 100% 29.59 in 3.7 mi SSE 9.2 mph - N/A Rain Light Rain Showers
5:25 AM 57.2 °F - 55.4 °F 94% 29.59 in 6.2 mi SSE 8.1 mph - N/A   Mostly Cloudy
5:39 AM 57.2 °F - 55.4 °F 94% 29.59 in - South 9.2 mph - N/A Rain Rain Showers
6:25 AM 57.2 °F - 55.4 °F 94% 29.59 in 5.0 mi SSW 8.1 mph - N/A Rain Light Rain
7:25 AM 57.2 °F - 57.2 °F 100% 29.62 in 4.3 mi WSW 8.1 mph - N/A Rain Light Rain
7:40 AM 57.2 °F - 55.4 °F 94% 29.62 in 6.2 mi WSW 9.2 mph - N/A   Mostly Cloudy
8:00 AM 56 °F - 55 °F 97% 29.64 in 14 mi WSW 8.9 mph - - Rain Light Rain Showers
8:10 AM 57.2 °F - 55.4 °F 94% 29.62 in 6.2 mi WSW 10.4 mph - N/A   Mostly Cloudy
8:25 AM 55.4 °F - 53.6 °F 94% 29.65 in 6.2 mi WSW 11.5 mph - N/A   Mostly Cloudy
9:02 AM 55.4 °F - 53.6 °F 94% 29.65 in 6.2 mi WSW 12.7 mph - N/A   Mostly Cloudy
9:25 AM 55.4 °F - 53.6 °F 94% 29.65 in 6.2 mi WSW 13.8 mph - N/A   Mostly Cloudy
9:53 AM 55.4 °F - 51.8 °F 88% 29.68 in 6.2 mi WSW 13.8 mph - N/A   Mostly Cloudy
10:25 AM 55.4 °F - 51.8 °F 88% 29.68 in 6.2 mi WSW 12.7 mph - N/A   Mostly Cloudy
11:00 AM 56 °F - 51 °F 78% 29.71 in 22 mi WSW 15.7 mph - -   Partly Cloudy
11:25 AM 55.4 °F - 50.0 °F 82% 29.71 in 6.2 mi WSW 17.3 mph - N/A   Mostly Cloudy
12:25 PM 55.4 °F - 46.4 °F 72% 29.71 in 6.2 mi WSW 18.4 mph - N/A   Mostly Cloudy
1:25 PM 57.2 °F - 46.4 °F 67% 29.74 in 6.2 mi WSW 17.3 mph - N/A   Mostly Cloudy
2:00 PM 56 °F - 45 °F 58% 29.76 in 22 mi WSW 17.9 mph - -   Mostly Cloudy
2:25 PM 55.4 °F - 44.6 °F 67% 29.74 in 6.2 mi WSW 19.6 mph - N/A   Scattered Clouds
3:25 PM 55.4 °F - 42.8 °F 63% 29.77 in 6.2 mi WSW 21.9 mph - N/A   Scattered Clouds
4:25 PM 55.4 °F - 42.8 °F 63% 29.80 in 6.2 mi West 13.8 mph - N/A   Mostly Cloudy
4:39 PM 55.4 °F - 44.6 °F 67% 29.80 in 6.2 mi WSW 18.4 mph - N/A   Mostly Cloudy
5:00 PM 56 °F - 43 °F 52% 29.81 in 18 mi WSW 17.9 mph - -   Scattered Clouds
5:25 PM 55.4 °F - 39.2 °F 54% 29.80 in 6.2 mi WSW 19.6 mph - N/A   Partly Cloudy
6:25 PM 53.6 °F - 37.4 °F 54% 29.83 in 6.2 mi WSW 12.7 mph - N/A   Clear
7:25 PM 51.8 °F - 41.0 °F 67% 29.86 in 6.2 mi SW 11.5 mph - N/A   Partly Cloudy
8:00 PM 51 °F - 42 °F 62% 29.89 in 28 mi SW 13.4 mph - -  
8:25 PM 50.0 °F - 42.8 °F 76% 29.89 in 6.2 mi SW 11.5 mph - N/A   Scattered Clouds
9:25 PM 48.2 °F - 44.6 °F 87% 29.89 in 6.2 mi SW 13.8 mph - N/A   Scattered Clouds
10:25 PM 46.4 °F 40.7 °F 42.8 °F 87% 29.89 in 6.2 mi SW 12.7 mph - N/A   Clear
11:00 PM 47 °F - 43 °F 79% 29.91 in 28 mi SSW 11.2 mph - -   Clear
11:25 PM 46.4 °F 40.7 °F 42.8 °F 87% 29.89 in 6.2 mi SSW 12.7 mph - N/A   Clear